Simultaneous Nadir Overpasses (SNOs) Predictions

Prediction of SNOs between LANDSAT-8 and METOP-A Satellite Orbit:

Table of predicted SNOs for the next 14.0 days since TLE Epoch: 4/28/2018
Index Date (LANDSAT-8) Time (LANDSAT-8) Lat,Lon (LANDSAT-8) SZA (LANDSAT-8 ) Date (METOP-A) Time (METOP-A) Lat,Lon (METOP-A) SZA (METOP-A ) Distance(km) Time Diff (sec)
1 04/28/2018 23:40:46 81.33,-132.56 69.37 04/28/2018 23:40:28 81.32,-132.71 69.34 2.65 18
2 04/29/2018 00:30:12 -81.35, 35.34 110.61 04/29/2018 00:31:07 -81.34, 35.45 110.57 1.85 55
3 05/01/2018 19:15:00 81.32, -66.27 68.50 05/01/2018 19:14:46 81.32, -66.33 68.49 1.01 14
4 05/01/2018 20:04:26 -81.34, 101.66 111.47 05/01/2018 20:05:25 -81.34, 101.85 111.42 3.23 59
5 05/04/2018 14:49:12 81.33, 0.36 67.71 05/04/2018 14:49:02 81.33, 0.43 67.71 1.07 10
6 05/04/2018 15:38:39 -81.33, 167.94 112.31 05/04/2018 15:39:43 -81.33, 167.85 112.29 1.68 64
7 05/07/2018 10:23:26 81.32, 66.58 66.90 05/07/2018 10:23:20 81.33, 66.78 66.92 3.33 6
8 05/07/2018 11:12:52 -81.34,-125.43 113.06 05/07/2018 11:14:00 -81.34,-125.40 113.03 0.48 68
9 05/10/2018 05:08:25 -81.05, -38.92 114.49 05/10/2018 05:07:11 -81.19, -39.29 114.46 16.12 74
10 05/10/2018 05:57:39 81.33, 133.15 66.17 05/10/2018 05:57:38 81.33, 133.11 66.16 0.73 1




NCC Satellite Simultaneous Nadir Overpasses (SNOs) Prediction Service
